Overview Statistics Trail Chart Weather Telemetry Raw packets
 

This is the latest recevied weather packets stored in our database for station/object KC1BRV. If no packets are shown the sender has not sent any weather packets the latest 10 day(s).

<< 91 92 93 94 95 96 97 >>
Time Temp. Humidity Pressure Rain* Wind** Luminosity Snow
1787942245 27.78° C 71% 1016.4 hPa 0 mm - 182 W/m² -
1787941940 27.78° C 71% 1016.4 hPa 0 mm - 178 W/m² -
1787941639 27.78° C 68% 1016.4 hPa 0 mm - 173 W/m² -
1787941334 27.78° C 71% 1016.3 hPa 0 mm - 187 W/m² -
1787941033 27.78° C 69% 1016.4 hPa 0 mm - 537 W/m² -
1787940733 27.78° C 70% 1016.6 hPa 0 mm - 172 W/m² -
1787940431 28.33° C 67% 1016.6 hPa 0 mm - 272 W/m² -
1787940126 28.33° C 66% 1016.7 hPa 0 mm - 229 W/m² -
1787939820 28.89° C 67% 1016.8 hPa 0 mm - 572 W/m² -
1787939519 28.33° C 65% 1016.4 hPa 0 mm - 571 W/m² -
1787939214 28.89° C 63% 1016.6 hPa 0 mm - 574 W/m² -
1787938908 28.33° C 69% 1016.6 hPa 0 mm - 634 W/m² -
1787938608 27.78° C 68% 1016.5 hPa 0 mm - 688 W/m² -
1787938304 27.22° C 70% 1016.6 hPa 0 mm - 659 W/m² -
1787937999 27.78° C 69% 1016.6 hPa 0 mm - 266 W/m² -
1787937694 27.78° C 69% 1016.7 hPa 0 mm - 462 W/m² -
1787937390 27.78° C 72% 1016.8 hPa 0 mm - 659 W/m² -
1787937086 27.78° C 71% 1016.9 hPa 0 mm - 651 W/m² -
1787936786 27.22° C 72% 1016.8 hPa 0 mm - 510 W/m² -
1787936481 26.67° C 73% 1016.8 hPa 0 mm - 614 W/m² -
1787936180 26.67° C 75% 1017 hPa 0 mm - 635 W/m² -
1787935875 26.11° C 77% 1016.9 hPa 0 mm - 173 W/m² -
1787935571 26.67° C 76% 1017.2 hPa 0 mm - 143 W/m² -
1787935268 26.67° C 75% 1017.3 hPa 0 mm - 277 W/m² -
1787934962 26.67° C 75% 1017.1 hPa 0 mm - 290 W/m² -

* Rain latest hour (hover to see other rain measurements)
** Current wind speed in m/s (hover to see current wind gust speed)